Regional Weather Roundup
Issued by NWS

Home | Current Version | Previous Version | Text Only | Print | Product List | Glossary On
Versions: 1 2 3 4 5 6 7 8 9 10 11 12 13 14 15 16 17 18 19 20 21 22 23 24 25 26 27 28
000
ASUS45 KSLC 270110
RWRUT

UTAH REGIONAL WEATHER ROUNDUP
NATIONAL WEATHER SERVICE SALT LAKE CITY UT
700 PM MDT WED APR 26 2017

UTZ001>011-023>025-270200-

NORTHERN UTAH

CITY           SKY/WX    TMP DP  RH WIND       PRES   REMARKS
BRIGHAM CITY   CLOUDY    47  41  78 S3        29.76F
HILL AFB       LGT RAIN  44  41  90 E5        29.76F
LOGAN          LGT RAIN  47  41  80 S9        29.75R
OGDEN          LGT RAIN  45  42  89 CALM      29.76F
SALT LAKE CITY LGT RAIN  49  45  86 N9        29.76R
TOOELE VALLEY  RAIN      46  43  87 NW13      29.77R
WENDOVER       PTSUNNY   51  42  71 CALM      29.73F
HEBER CITY     CLOUDY    43  36  75 CALM      29.75F
WEST JORDAN    CLOUDY    50  48  93 NW13G20   29.77R

$$

UTZ011>015-024>027-270200-

CENTRAL/NORTHEAST UTAH

CITY           SKY/WX    TMP DP  RH WIND       PRES   REMARKS
PROVO AIRPORT  LGT RAIN  51  39  63 S8        29.75F
MOAB/CANYONLAN CLOUDY    62  20  19 S9        29.68F
DELTA          PTSUNNY   61  32  33 SW18G30   29.66S
PRICE          CLOUDY    50  31  48 W5        29.76R
ROOSEVELT      CLOUDY    52  30  43 SW21G31   29.77R
VERNAL         CLOUDY    54  25  32 W14G22    29.73R

$$

UTZ013>016-019>022-027-270200-

SOUTHERN UTAH

CITY           SKY/WX    TMP DP  RH WIND       PRES   REMARKS
BRYCE CANYON   MOSUNNY   53  26  35 W23G35    29.82F
CEDAR CITY     PTSUNNY   60  32  34 SW20G33   29.77F
MILFORD        CLOUDY    66  32  28 SW9       29.67F
ST GEORGE      CLOUDY    75  28  17 W9        29.71F
HANKSVILLE     CLOUDY    64  21  19 SW6       29.71R
BLANDING       PTSUNNY   57  17  21 W12       29.84F

$$

REGIONAL REPORTS     COLORADO/ARIZONA

CITY           SKY/WX    TMP DP  RH WIND       PRES   REMARKS
CRAIG, CO      CLOUDY    49  27  42 W18       29.74R
GRAND JUNCTION CLOUDY    59  22  24 W9        29.73S
RIFLE, CO      CLOUDY    50  33  52 E5        29.77R
MONTROSE, CO   CLOUDY    55  22  27 N6        29.77R
CORTEZ, CO     CLOUDY    57  18  21 W9        29.79S
COLORADO CITY    N/A     68  32  26 W15       29.82F
PAGE, AZ       MOSUNNY   71  29  21 W14G25    29.71S
GRAND CANYON   MOSUNNY   61  29  29 W10G22    29.89R
KINGMAN, AZ    MOSUNNY   75  27  17 SW28G38   29.77F
FLAGSTAFF, AZ  MOSUNNY   60  26  27 W17G32    29.90S

$$

REGIONAL REPORTS    NEVADA/IDAHO/WYOMING

CITY           SKY/WX    TMP DP  RH WIND       PRES   REMARKS
LAS VEGAS, NV  PTSUNNY   85  29  13 SW18      29.64F
ELY, NY        CLOUDY    47  41  80 W8        29.83S
ELKO, NV       PTSUNNY   45  39  79 NE8       29.77S
POCATELLO, ID  CLOUDY    43  40  89 SW15      29.73F
BURLEY, ID     PTSUNNY   48  41  76 W9        29.70F
FORT BRIDGER,  CLOUDY    42  32  67 W14G20    29.79F
EVANSTON, WY   LGT RAIN  38  33  82 SW16      29.77F WCI  29
ROCK SPRINGS,  CLOUDY    44  26  49 W20G25    29.74S
KEMMERER, WY     N/A     37  32  81 SW16      29.75F WCI  28

$$




USA.gov is the U.S. government's official web portal to all federal, state and local government web resources and services.